Home   Weather   Kalisz   Past weeks

Flag for Poland Past Weather in Kalisz, Poland — Yesterday and Last 2 Weeks

Now
47 °F

Passing clouds.


Feels Like: 45 °F
Forecast: 43 / 63 °F
Wind: 5 mph from South

Location: Kalisz

Current Time: Apr 24, 2017 at 11:02:24 pm

Latest Report: Apr 24, 2017 at 10:00 pm


Visibility: 13 mi

Pressure: 29.85 "Hg

Humidity: 61%

Dew Point: 34 °F

Location of KaliszLocation

Past Weather in Kalisz — Graph

°F

Kalisz Temperature Yesterday

Maximum temperature yesterday: 49 °F (at 2:00 pm)
Minimum temperature yesterday: 35 °F (at 6:00 am)
Average temperature yesterday: 41 °F

High & Low Weather Summary for the Past Weeks

 TemperatureHumidityPressure
High70 °F (Apr 10, 4:00 pm)100% (Apr 12, 11:00 pm)30.50 "Hg (Apr 12, 11:00 pm)
Low31 °F (Apr 19, 6:00 am)39% (Apr 10, 6:00 pm)29.67 "Hg (Apr 13, 5:00 am)
Average43 °F77%30.03 "Hg
* Reported Apr 9 9:00 pm — Apr 24 9:00 pm, Kalisz, Weather by CustomWeather, © 2017

Note: Actual official high and low records may vary slightly from our data, if they occured in-between our weather recording intervals... More about our weather records

Advertising

Kalisz Weather History for the Previous 24 Hours

Scroll right to see more
 ConditionsComfort  
Time TempWeatherWind HumidityBarometerVisibility
9:00 pm
Mon, Apr 24
49 °FOvercast.3 mph54%29.87 "Hg16 mi
8:00 pm51 °FOvercast.5 mph49%29.87 "Hg22 mi
7:00 pm51 °FOvercast.6 mph50%29.89 "Hg31 mi
6:00 pm52 °FOvercast.6 mph44%29.90 "Hg25 mi
5:00 pm52 °FOvercast.6 mph41%29.93 "Hg25 mi
4:00 pm50 °FOvercast.6 mph50%29.96 "Hg22 mi
3:00 pm50 °FOvercast.6 mph53%29.98 "Hg19 mi
2:00 pm49 °FOvercast.6 mph55%30.02 "Hg19 mi
1:00 pm47 °FOvercast.6 mph61%30.04 "Hg22 mi
12:00 pm46 °FOvercast.7 mph58%30.06 "Hg22 mi
11:00 am44 °FOvercast.7 mph70%30.07 "Hg17 mi
10:00 am42 °FOvercast.5 mph77%30.08 "Hg25 mi
9:00 am41 °FOvercast.5 mph85%30.09 "Hg25 mi
8:00 am39 °FOvercast.5 mph90%30.09 "Hg25 mi
7:00 am36 °FOvercast.3 mph96%30.09 "Hg19 mi
6:00 am33 °FPartly sunny.3 mph97%30.08 "Hg10 mi
5:00 am34 °FPassing clouds.5 mph96%30.08 "Hg11 mi
4:00 am34 °FPassing clouds.5 mph98%30.08 "Hg8 mi
3:00 am35 °FOvercast.3 mph97%30.08 "Hg6 mi
2:00 am36 °FOvercast.3 mph94%30.08 "Hg25 mi
1:00 am36 °FOvercast.5 mph97%30.09 "Hg10 mi
12:00 am37 °FPassing clouds.3 mph92%30.08 "Hg19 mi
11:00 pm
Sun, Apr 23
38 °FOvercast.6 mph92%30.07 "Hg28 mi
Weather by CustomWeather, © 2017

See weather overviewHow to use our weather pages